Other Surface Observations
Issued by NWS

Current Version | Previous Version | Text Only | Print | Product List | Glossary On
Versions: 1 2 3 4 5 6 7 8 9 10 11 12 13 14 15 16 17 18 19 20 21 22 23 24 25 26 27 28 29 30 31 32 33 34 35 36 37 38 39 40 41 42 43 44 45 46 47 48 49 50
000
SXUS52 KTAE 241518
OSOTAE
OSOTAE
North Florida/South Alabama/Southwest Georgia Weather Roundup
National Weather Service Tallahassee Florida
1000 AM EST MON NOV 24 2014

Note: "fair" indicates few or no clouds below 12,000 feet with no
significant weather and/or obstructions to visibility.

!FLZ017-115-028-034-025-241600
...North Florida...

CITY           SKY/WX    TMP DP  RH WIND       PRES   REMARKS
TALLAHASSEE    CLOUDY    76  71  85 SW8       29.88R
APALACHICOLA   HVY RAIN  73  70  90 SW14G21   29.89R VSB 3/4
PERRY          CLOUDY    73  72  97 S9G18     29.92R
CROSS CITY       N/A     74  71  91 S12       29.94R
JACKSONVILLE   PTSUNNY   77  72  84 S12       29.94S
$$

!FLZ112-006-005-002-011-241600
...Florida Panhandle...

CITY           SKY/WX    TMP DP  RH WIND       PRES   REMARKS
MARIANNA       CLOUDY    71  71 100 SW6       29.86R
BONIFAY        PTSUNNY   72  68  87 MISG      29.87R
PANAMA CITY NW CLOUDY    72  70  94 CALM      29.85S
TYNDALL AFB    LGT RAIN  70  70 100 SW3       29.88R FOG
TYND DRONE APT LGT RAIN  70  70 100 MISG      29.87R FOG
DE FUNIAK SPR  FAIR      71  67  85 SW8G16    29.87R
EGLIN AFB      MOSUNNY   73  67  81 W12G22    29.86R
DESTIN         MOSUNNY  N/A N/A N/A VRB5      29.86R
HURLBURT       MOSUNNY   73  66  76 W9        29.85R
CRESTVIEW      PTSUNNY   74  67  78 W10       29.86R
PENSACOLA      PTSUNNY   68  66  93 SW10      29.85R
$$

!ALZ063-066-241600
...South Alabama...

CITY           SKY/WX    TMP DP  RH WIND       PRES   REMARKS
DOTHAN         CLOUDY    68  67  96 W6        29.89R
OZARK CAIRNS   CLOUDY    70  66  88 SW8       29.85R
FT RUCKER HELI PTSUNNY   68  66  93 W6        29.83S
RUCKER HELI 3  PTSUNNY   70  66  88 W8G14     29.88R
RUCKER HELI 2  PTSUNNY   67  66  97 VRB5      29.87R
FLORALA APT    PTSUNNY   72  66  83 VRB5      29.87R
ANDALUSIA      PTSUNNY   74  64  71 W12       29.84R
TROY           MOSUNNY   70  64  81 SW8       29.84F
EUFALA         FAIR      72  64  78 SW9       29.83R
MOBILE         PTSUNNY   71  63  75 W8        29.85R
$$

!GAZ120>161-241600
...Southwest and South Central Georgia...

CITY           SKY/WX    TMP DP  RH WIND       PRES   REMARKS
THOMASVILLE    RAIN      72  72 100 W6        29.91R
BAINBRIDGE     MOSUNNY   73  72  94 SW6       29.87R FOG
MOODY AFB      CLOUDY    74  71  90 S13       29.89R
VALDOSTA       CLOUDY    75  72  90 S7        29.89R
MOULTRIE       RAIN      68 N/A N/A SW6       29.90R
BLAKELY        CLOUDY    70  70 100 CALM      29.87R FOG
ALBANY         CLOUDY    70  68  93 SW5       29.88S
TIFTON         LGT RAIN  69  68  97 S6        29.88S
FITZGERALD     CLOUDY    71  69  91 SW6       29.89S
CORDELE        CLOUDY    70  68  93 SW7       29.87R
AMERICUS       CLOUDY    68  68 100 SW7       29.87S
HOMERVILLE     CLOUDY    77  73  88 S9        29.90R
$$

!GMZ750-755-770-775-241600
...Coastal and Buoy Obs...

STATION/POSITION TIME  TEMP    WIND        PRES    VSBY  WAVE
                       AIR SEA DIR/SP/G                  HT/PER
                 (UTC) (F)     (DEG/KT/KT) (MB)    (MI)  (FT/S)
KEATON BEACH     1500   65     170/ 14/ 17 1013.6R
CEDAR KEY        1500   67     190/ 15/ 17 1014.7R
C TOWER          1500   72     180/ 24/ 25 1011.3F
APALACHICOLA BUO 1500   74 72  170/ 10/ 12 1013.2R         5/ 8
PANAMA CITY BUOY 1435   73 76  260/ 17/ 21 1012.4R         6/ 6
MOBILE BUOY      1356   73 72  260/ 10/ 12 1011.9          6/ 7
ORANGE BCH AL BU 1500   68 69  300/  8/ 10 1010.3R         5/ 8
$$



USA.gov is the U.S. government's official web portal to all federal, state and local government web resources and services.